Regional Weather Roundup
Issued by NWS Northern Indiana

Home | Current Version | Previous Version | Graphics & Text | Print | Product List | Glossary On
Versions: 1 2 3 4 5 6 7 8 9 10 11 12 13 14 15 16 17 18 19 20 21 22 23 24 25 26 27 28 29 30 31 32 33 34 35 36 37 38 39 40 41 42 43 44 45 46 47 48 49 50
000
ASUS43 KIWX 300000
RWRIWX

KIWX WEATHER ROUNDUP
NATIONAL WEATHER SERVICE NORTHERN INDIANA
800 PM EDT WED MAR 29 2017

NOTE: "FAIR" INDICATES FEW OR NO CLOUDS BELOW 12,000 FEET WITH NO
SIGNIFICANT WEATHER AND/OR OBSTRUCTIONS TO VISIBILITY.

* THESE STATIONS ARE NOT UNDER NWS QUALITY CONTROL. THEY ALSO MAY NOT
  REPORT WEATHER SUCH AS PRECIPITATION OR FOG.

INZ001>027-300100-
NORTHERN INDIANA

CITY           SKY/WX    TMP DP  RH WIND       PRES   REMARKS
GARY*          LGT RAIN  52  36  54 E12G23    30.07S
SOUTH BEND     CLOUDY    51  32  48 E18G30    30.09S
6HR MIN TEMP:  51; 6HR MAX TEMP:  57;

ELKHART*       PTCLDY    52  32  46 E16       30.08F
GOSHEN         CLOUDY    50  29  44 E21G28    30.10S
6HR MIN TEMP:  50; 6HR MAX TEMP:  57;

MONTICELLO*    CLOUDY    54  37  53 E15G25    30.02F
6HR MIN TEMP:  54; 6HR MAX TEMP:  58;

ANGOLA*        MOCLDY    48  36  61 E17       30.13F
FORT WAYNE     MOCLDY    50  32  50 E21G29    30.12F
6HR MIN TEMP:  50; 6HR MAX TEMP:  58;


$$
INZ028>050-300100-
CENTRAL INDIANA

CITY           SKY/WX    TMP DP  RH WIND       PRES   REMARKS
LAFAYETTE      CLOUDY    55  41  59 E22G30    30.02S
6HR MIN TEMP:  55; 6HR MAX TEMP:  58; 6HR PCP: TRACE;

KOKOMO*        CLOUDY    53  41  63 E18G29    30.06F
6HR MIN TEMP:  53; 6HR MAX TEMP:  58;

MUNCIE*        CLOUDY    55  41  59 E13       30.08R
6HR MIN TEMP:  55; 6HR MAX TEMP:  61;

INDIANAPOLIS   CLOUDY    58  41  53 E16G25    30.03R
6HR MIN TEMP:  54; 6HR MAX TEMP:  60;


$$
MIZ043>046-050>051-056>058-064>065-071>073-077>080-300100-
SOUTHWEST LOWER MICHIGAN

CITY           SKY/WX    TMP DP  RH WIND       PRES   REMARKS
BATTLE CREEK   CLOUDY    51  33  50 E13       30.12F
6HR MIN TEMP:  51; 6HR MAX TEMP:  56;

BENTON HARBOR  CLOUDY    53  33  46 MISG      30.07F
6HR MIN TEMP:  53; 6HR MAX TEMP:  57;

COLDWATER*     MOCLDY    51  32  48 E12G18    30.12F
6HR MIN TEMP:  51; 6HR MAX TEMP:  56;

HILLSDALE*     CLOUDY    46  34  61 E10G17    30.13F
HOLLAND        CLOUDY    51  34  52 E15       30.11F
6HR MIN TEMP:  51; 6HR MAX TEMP:  55;

GRAND RAPIDS   CLOUDY    46  35  65 E15       30.15F
6HR MIN TEMP:  46; 6HR MAX TEMP:  53;

KALAMAZOO      CLOUDY    52  32  46 E10       30.13F
6HR MIN TEMP:  52; 6HR MAX TEMP:  58;

STURGIS*       CLOUDY    50  34  54 SE15G21   30.11S
6HR MIN TEMP:  50; 6HR MAX TEMP:  56;

THREE RIVERS*  MOCLDY    51  34  51 E8        30.11F
6HR MIN TEMP:  51; 6HR MAX TEMP:  56;


$$
OHZ001>008-015>018-024>025-300100-
NORTHWEST OHIO

CITY           SKY/WX    TMP DP  RH WIND       PRES   REMARKS
DEFIANCE       PTCLDY    47  31  53 E12       30.16F
6HR MIN TEMP:  47; 6HR MAX TEMP:  56;

FINDLAY        MOCLDY    49  30  48 NE17G23   30.15F
6HR MIN TEMP:  49; 6HR MAX TEMP:  58;

TOLEDO EXPRESS CLOUDY    48  30  49 E10       30.20S
6HR MIN TEMP:  48; 6HR MAX TEMP:  55;

TOLEDO METCALF CLOUDY    47  33  58 E6        30.23R
6HR MIN TEMP:  47; 6HR MAX TEMP:  54;

LIMA           CLOUDY    48  34  58 NE15      30.13F
6HR MIN TEMP:  48; 6HR MAX TEMP:  57;


$$
AND FOR LAKE MICHIGAN COASTAL AND OPEN LAKE BUOY OBSERVATIONS

STATION/POSITION TEMP    WIND        PRES    VSBY  WAVE
                 AIR SEA DIR/SP/G                  HT/PER
                 (F)     (DEG/KT/KT) (MB)    (MI)  (FT/S)
CALUMET HARBOR    42      40/ 10/ 12 1017.3S
MICHIGAN CITY     53      80/ 14/ 17   N/A
BURNS HARBOR      53     100/ 11/ 20 1017.9F

$$
&&




USA.gov is the U.S. government's official web portal to all federal, state and local government web resources and services.